Regional Weather Roundup
Issued by NWS Sterling, VA

Home | Current Version | Previous Version | Text Only | Print | Product List | Glossary On
Versions: 1 2 3 4 5 6 7 8 9 10 11 12 13 14 15 16 17 18 19 20 21 22 23 24 25 26 27 28 29 30 31 32 33 34 35 36 37 38 39 40 41 42 43 44 45 46 47 48 49 50
000
ASUS41 KLWX 280410
RWRLWX

REGIONAL WEATHER ROUNDUP
NATIONAL WEATHER SERVICE BALTIMORE MD/WASHINGTON DC
1200 AM EDT MON JUL 28 2014

Note: "FAIR" indicates few or no clouds below 12,000 feet
with no significant weather and/or obstructions to visibility.
 TC=TEMPERATURE CELSIUS

 * =Non NWS site. Station does not report precipitation (e.g. rain,
    snow, etc.), thunder, or fog.

DCZ001-MDZ009-015-VAZ040>042-051-053>054-280500-
WASHINGTON METRO
  /KDAA//-FT BELVOIR

CITY           SKY/WX    TMP DP  RH WIND       PRES   REMARKS
WASHINGTON NAT TSTM      81  72  74 W7        29.64F
DULLES         LGT RAIN  77  71  82 SW10G21   29.64F
ANDREWS AFB    MOCLDY    78  72  83 SW9       29.64F
QUANTICO       PTCLDY    80  71  74 SW10      29.65F
COLLEGE PARK*  CLOUDY    79  73  83 CALM      29.64S
LEESBURG*      LGT RAIN  75  73  94 SW12G22   29.62F
MANASSAS*      MOCLDY    79  73  83 W6        29.66S
GAITHERSBURG*  CLOUDY    75  70  83 CALM      29.67F

$$

MDZ006>007-011-014-280500-
BALTIMORE METRO

CITY           SKY/WX    TMP DP  RH WIND       PRES   REMARKS
BWI AIRPORT    RAIN      75  72  88 VRB6      29.64F FOG
MD SCIENCE CTR   N/A     79  71  76 MISG      29.65F
MARTIN STATE   CLOUDY    79  73  83 S5        29.65F
ANNAPOLIS      MOCLDY    78  71  79 S6        29.63F
FORT MEADE*    CLOUDY    72  70  94 W3        29.67F

$$

MDZ012-015-019>023-280500-
MARYLAND EASTERN SHORE

CITY           SKY/WX    TMP DP  RH WIND       PRES   REMARKS
OCEAN CITY     CLEAR     76  72  87 SW10      29.70F
SALISBURY      NOT AVBL
BAY BRIDGE AP*   N/A     79  72  78 S8        29.64F
CAMBRIDGE*     PTCLDY    79  72  78 S8        29.66F
EASTON*        MOCLDY    79  75  86 SW9       29.69F

$$

MDZ017>025-280500-
SOUTHERN MARYLAND

CITY           SKY/WX    TMP DP  RH WIND       PRES   REMARKS
PATUXENT RIVER CLEAR     78  71  79 SW14G23   29.64F
ST INIGOES     PTCLDY    79  71  76 SW15G26   29.65F
LEONARDTOWN*   CLEAR     77  70  78 SW10      29.67F

$$

MDZ003>005-280500-
NORTH CENTRAL MARYLAND

CITY           SKY/WX    TMP DP  RH WIND       PRES   REMARKS
FREDERICK*     TSTM      68  68 100 N3G16     29.69F
HAGERSTOWN APT CLOUDY    66  65  96 CALM      29.66R
WESTMINSTER*   TSTM      66  64  94 N8        29.70R

$$

MDZ501>502-280500-
WESTERN MARYLAND

CITY           SKY/WX    TMP DP  RH WIND       PRES   REMARKS
OAKLAND*       PTCLDY    61 N/A N/A SW9G16    29.76R
CUMBERLAND*    PTCLDY    70  68  94 S3        29.71R

$$

VAZ025>031-280500-
SHENANDOAH VALLEY

CITY           SKY/WX    TMP DP  RH WIND       PRES   REMARKS
WINCHESTER*    CLOUDY    70  64  83 W10       29.67F
STAUNTON*      CLOUDY    73  66  79 E6        29.75F

$$

WVZ021-048>050-054>055-280500-
EASTERN WEST VIRGINIA PANHANDLE

CITY           SKY/WX    TMP DP  RH WIND       PRES   REMARKS
MARTINSBURG    LGT RAIN  71  67  87 NE9       29.66S
PETERSBURG*    MOCLDY    67  62  85 SE7       29.70F

$$

VAZ036>039-050-280500-
CENTRAL FOOTHILLS

CITY           SKY/WX    TMP DP  RH WIND       PRES   REMARKS
CHARLOTTESVILL MOCLDY    76  72  87 CALM      29.70F
ORANGE*        PTCLDY    75  70  83 S6        29.70F

$$

VAZ055>057-280500-
NORTH AND CENTRAL PIEDMONT

CITY           SKY/WX    TMP DP  RH WIND       PRES   REMARKS
FREDERICKSBRG* PTCLDY    80  73  79 SW13      29.65F
STAFFORD*      PTCLDY    78  77  98 SW8       29.69F

$$

NCZ024-NYZ072-PAZ021-071-VAZ022-071-280500-
OTHER REGIONAL OBSERVATIONS

CITY           SKY/WX    TMP DP  RH WIND       PRES   REMARKS
NEW YORK CITY  LGT RAIN  78  71  79 W5        29.67F
PHILADELPHIA   TSTM      74  68  81 N10G18    29.67R
PITTSBURGH     MOCLDY    68  63  84 SW3       29.65F
ROANOKE        PTCLDY    77  64  64 SW12      29.78S
RICHMOND       PTCLDY    79  72  79 S12       29.71F
RALEIGH        CLOUDY    82  70  66 SW10      29.77R

$$

ANZ530>537-280500-
MARINE OBSERVATIONS

STATION/POSITION TIME  TEMP    WIND        PRES
                       AIR SEA DIR/SP/G
                 (UTC) (F)     (DEG/KT/KT) (MB)
THOMAS PT LIGHT  0400   79 79  200/ 14/ 16 1004.0F
BALT KEY BRIDGE  0400   95     190/  9/ 12 1003.1S
COVE POINT       0400   78     210/ 12/ 16 1003.7F
LEWISETTA        0400   79 80  230/ 14/ 19 1004.4F
SOLOMONS ISLAND  0400      80                N/A
PINEY POINT      0400          240/ 15/ 22   N/A

$$



USA.gov is the U.S. government's official web portal to all federal, state and local government web resources and services.